Glenwood, MN

1:27 AM CST on December 06, 2016 (GMT -0600)
Glenwood Municipal

Weather History for KGHW - April, 2013

Change the Weather History Date:

Thursday, April 4, 2013

  Actual Average Record
Temperature  
Mean Temperature 32 °F -  
Max Temperature 39 °F 48 °F 74 °F (1991)
Min Temperature 23 °F 26 °F 10 °F (1975)
Degree Days  
Heating Degree Days 34    
Moisture  
Dew Point 26 °F    
Average Humidity 78    
Maximum Humidity 100    
Minimum Humidity 56    
Precipitation  
Precipitation 0.00 in - - ()
Sea Level Pressure  
Sea Level Pressure 30.11 in    
Wind  
Wind Speed 12 mph (NW)    
Max Wind Speed 20 mph    
Max Gust Speed 26 mph    
Visibility 9 miles    
Events      
Averages and records for this station are not official NWS values.
T = Trace of Precipitation, MM = Missing Value Source: NWS Daily Summary

Daily Weather History Graph

Daily Weather History Graph

Search for Another Location

Airport or City:

Trip Planner

Search our weather history database for the weather conditions in past years. The results will help you decide how hot, cold, wet, or windy it might be!

Date:

Astronomy

Apr. 04, 2013 Rise Set
Actual Time 6:55 AM CDT 7:53 PM CDT
Civil Twilight 6:25 AM CDT 8:24 PM CDT
Nautical Twilight 5:48 AM CDT 9:00 PM CDT
Astronomical Twilight 5:11 AM CDT 9:38 PM CDT
Moon 3:39 AM CDT (4/4) 1:57 PM CDT (4/4)
Length of Visible Light 13h 59m
Length of Day
12h 58m
Waning Crescent, 33% of the Moon is Illuminated
Apr 4
Waning Crescent
Apr 10
New
Apr 18
First Quarter
Apr 25
Full
May 2
Last Quarter

Hourly Weather History & Observations

Time (CDT) Temp. Windchill Dew Point Humidity Pressure Visibility Wind Dir Wind Speed Gust Speed Precip Events Conditions
12:13 AM 39.2 °F 30.5 °F 33.8 °F 81% 29.96 in 10.0 mi South 16.1 mph - N/A   Clear
12:34 AM 39.2 °F 29.6 °F 33.8 °F 81% 29.96 in 10.0 mi SSW 19.6 mph - N/A   Clear
12:53 AM 37.4 °F 27.8 °F 32.0 °F 81% 29.97 in 10.0 mi WSW 17.3 mph - N/A   Clear
1:13 AM 39.2 °F 30.2 °F 33.8 °F 81% 29.97 in 10.0 mi West 17.3 mph 23.0 mph N/A   Clear
1:34 AM 37.4 °F 28.9 °F 33.8 °F 87% 29.98 in 10.0 mi West 13.8 mph - N/A   Clear
1:53 AM 35.6 °F 28.6 °F 33.8 °F 93% 29.99 in 7.0 mi West 9.2 mph - N/A   Clear
2:13 AM 35.6 °F 28.6 °F 33.8 °F 93% 30.00 in 5.0 mi WSW 9.2 mph - N/A   Clear
2:33 AM 33.8 °F 26.4 °F 32.0 °F 93% 30.00 in 5.0 mi West 9.2 mph - N/A   Clear
2:53 AM 33.8 °F 27.0 °F 32.0 °F 93% 30.00 in 4.0 mi West 8.1 mph - N/A   Clear
3:13 AM 32.0 °F 24.8 °F 30.2 °F 93% 30.00 in 4.0 mi West 8.1 mph - N/A   Clear
3:33 AM 33.8 °F 27.7 °F 30.2 °F 87% 30.00 in 5.0 mi West 6.9 mph - N/A   Clear
3:53 AM 32.0 °F 24.2 °F 30.2 °F 93% 30.01 in 5.0 mi WNW 9.2 mph - N/A   Clear
4:13 AM 30.2 °F 25.4 °F 30.2 °F 100% 30.01 in 5.0 mi West 4.6 mph - N/A   Clear
4:33 AM 30.2 °F 22.6 °F 30.2 °F 100% 30.02 in 7.0 mi WNW 8.1 mph - N/A   Clear
4:53 AM 30.2 °F 23.4 °F 28.4 °F 93% 30.02 in 7.0 mi WNW 6.9 mph - N/A   Clear
5:14 AM 32.0 °F 24.8 °F 26.6 °F 80% 30.02 in 10.0 mi NW 8.1 mph - N/A   Scattered Clouds
5:33 AM 32.0 °F 24.8 °F 26.6 °F 80% 30.03 in 10.0 mi NW 8.1 mph - N/A   Scattered Clouds
5:53 AM 32.0 °F 24.8 °F 26.6 °F 80% 30.03 in 10.0 mi WNW 8.1 mph - N/A   Clear
6:14 AM 30.2 °F 21.9 °F 26.6 °F 86% 30.05 in 10.0 mi WNW 9.2 mph - N/A   Clear
6:33 AM 28.4 °F 22.2 °F 26.6 °F 93% 30.05 in 10.0 mi West 5.8 mph - N/A   Clear
6:53 AM 30.2 °F 21.9 °F 26.6 °F 86% 30.05 in 10.0 mi WNW 9.2 mph - N/A   Clear
7:14 AM 30.2 °F 21.3 °F 26.6 °F 86% 30.06 in 10.0 mi NW 10.4 mph - N/A   Clear
7:33 AM 30.2 °F 20.8 °F 26.6 °F 86% 30.07 in 10.0 mi NW 11.5 mph - N/A   Clear
7:53 AM 30.2 °F 21.9 °F 26.6 °F 86% 30.07 in 10.0 mi NW 9.2 mph - N/A   Clear
8:14 AM 30.2 °F 20.8 °F 26.6 °F 86% 30.08 in 10.0 mi NW 11.5 mph - N/A   Clear
8:33 AM 30.2 °F 20.2 °F 26.6 °F 86% 30.10 in 10.0 mi NW 12.7 mph - N/A   Clear
8:53 AM 30.2 °F 20.2 °F 26.6 °F 86% 30.10 in 10.0 mi NW 12.7 mph - N/A   Clear
9:14 AM 32.0 °F 24.2 °F 28.4 °F 87% 30.10 in 10.0 mi NW 9.2 mph - N/A   Clear
9:33 AM 32.0 °F 24.2 °F 28.4 °F 87% 30.10 in 10.0 mi NW 9.2 mph - N/A   Clear
9:53 AM 32.0 °F 23.6 °F 28.4 °F 87% 30.10 in 10.0 mi NW 10.4 mph 16.1 mph N/A   Clear
10:14 AM 33.8 °F 25.3 °F 28.4 °F 81% 30.11 in 10.0 mi NW 11.5 mph - N/A   Clear
10:33 AM 32.0 °F 23.0 °F 28.4 °F 87% 30.12 in 10.0 mi NW 11.5 mph - N/A   Clear
10:53 AM 35.6 °F 27.1 °F 28.4 °F 75% 30.12 in 10.0 mi NNW 12.7 mph - N/A   Clear
11:33 AM 35.6 °F 27.5 °F 28.4 °F 75% 30.14 in 10.0 mi NW 11.5 mph - N/A   Clear
11:53 AM 35.6 °F 28.0 °F 26.6 °F 70% 30.14 in 10.0 mi NW 10.4 mph - N/A   Clear
12:13 PM 37.4 °F 30.8 °F 28.4 °F 70% 30.14 in 10.0 mi NNW 9.2 mph - N/A   Clear
12:33 PM 37.4 °F 30.3 °F 28.4 °F 70% 30.14 in 10.0 mi NW 10.4 mph - N/A   Scattered Clouds
12:54 PM 37.4 °F 29.8 °F 26.6 °F 65% 30.15 in 10.0 mi NW 11.5 mph - N/A   Clear
1:13 PM 37.4 °F 29.3 °F 26.6 °F 65% 30.15 in 10.0 mi NW 12.7 mph 17.3 mph N/A   Clear
1:33 PM 37.4 °F 29.3 °F 26.6 °F 65% 30.15 in 10.0 mi NW 12.7 mph - N/A   Clear
1:54 PM 37.4 °F 28.5 °F 26.6 °F 65% 30.15 in 10.0 mi NW 15.0 mph 18.4 mph N/A   Clear
2:13 PM 37.4 °F 29.8 °F 26.6 °F 65% 30.15 in 10.0 mi NNW 11.5 mph - N/A   Clear
2:33 PM 37.4 °F 28.5 °F 26.6 °F 65% 30.15 in 10.0 mi NNW 15.0 mph - N/A   Clear
2:53 PM 35.6 °F 25.2 °F 24.8 °F 65% 30.15 in 10.0 mi NNW 18.4 mph 23.0 mph N/A   Clear
3:13 PM 35.6 °F 25.5 °F 24.8 °F 65% 30.15 in 10.0 mi NNW 17.3 mph 23.0 mph N/A   Clear
3:33 PM 35.6 °F 25.5 °F 24.8 °F 65% 30.15 in 10.0 mi NNW 17.3 mph 26.5 mph N/A   Clear
3:53 PM 35.6 °F 26.2 °F 24.8 °F 65% 30.15 in 10.0 mi NNW 15.0 mph - N/A   Clear
4:13 PM 35.6 °F 26.2 °F 24.8 °F 65% 30.15 in 10.0 mi NW 15.0 mph 19.6 mph N/A   Clear
4:33 PM 37.4 °F 29.8 °F 24.8 °F 60% 30.15 in 10.0 mi NNW 11.5 mph - N/A   Clear
4:53 PM 35.6 °F 27.1 °F 21.2 °F 56% 30.15 in 10.0 mi NNW 12.7 mph - N/A   Clear
5:13 PM 35.6 °F 25.9 °F 21.2 °F 56% 30.15 in 10.0 mi NNW 16.1 mph - N/A   Clear
5:33 PM 35.6 °F 27.1 °F 21.2 °F 56% 30.15 in 10.0 mi NNW 12.7 mph - N/A   Clear
5:53 PM 35.6 °F 27.5 °F 23.0 °F 60% 30.16 in 10.0 mi NW 11.5 mph - N/A   Clear
6:13 PM 35.6 °F 27.5 °F 23.0 °F 60% 30.16 in 10.0 mi NW 11.5 mph 16.1 mph N/A   Clear
6:33 PM 33.8 °F 26.4 °F 23.0 °F 65% 30.17 in 10.0 mi NNW 9.2 mph - N/A   Clear
6:53 PM 33.8 °F 25.3 °F 23.0 °F 65% 30.17 in 10.0 mi NNW 11.5 mph - N/A   Clear
7:13 PM 32.0 °F 24.2 °F 23.0 °F 69% 30.16 in 10.0 mi NNW 9.2 mph - N/A   Clear
7:34 PM 30.2 °F 22.6 °F 23.0 °F 75% 30.16 in 10.0 mi NNW 8.1 mph - N/A   Clear
7:53 PM 30.2 °F 22.6 °F 21.2 °F 69% 30.17 in 10.0 mi NNW 8.1 mph - N/A   Clear
8:13 PM 28.4 °F 19.1 °F 21.2 °F 74% 30.17 in 10.0 mi NNW 10.4 mph - N/A   Clear
8:34 PM 28.4 °F 19.7 °F 21.2 °F 74% 30.18 in 10.0 mi NW 9.2 mph - N/A   Clear
8:53 PM 28.4 °F 20.4 °F 21.2 °F 74% 30.18 in 10.0 mi NNW 8.1 mph - N/A   Clear
9:13 PM 26.6 °F 19.1 °F 21.2 °F 80% 30.18 in 10.0 mi NNW 6.9 mph - N/A   Clear
9:33 PM 26.6 °F 20.0 °F 21.2 °F 80% 30.19 in 10.0 mi NW 5.8 mph - N/A   Clear
9:53 PM 26.6 °F 20.0 °F 21.2 °F 80% 30.19 in 10.0 mi NW 5.8 mph - N/A   Clear
10:13 PM 24.8 °F 16.9 °F 21.2 °F 86% 30.19 in 10.0 mi NW 6.9 mph - N/A   Clear
10:33 PM 26.6 °F 18.2 °F 21.2 °F 80% 30.20 in 10.0 mi NW 8.1 mph - N/A   Clear
10:53 PM 24.8 °F 16.1 °F 21.2 °F 86% 30.20 in 10.0 mi NW 8.1 mph - N/A   Clear
11:13 PM 24.8 °F 16.1 °F 19.4 °F 80% 30.20 in 10.0 mi NNW 8.1 mph - N/A   Clear
11:33 PM 24.8 °F 16.9 °F 19.4 °F 80% 30.20 in 10.0 mi NNW 6.9 mph - N/A   Clear
11:53 PM 23.0 °F 14.7 °F 19.4 °F 86% 30.21 in 10.0 mi NNW 6.9 mph - N/A   Clear